[TLELIST] Archives

 

[TLELIST] Current TLEs

June 12th 2023 PDT

HST 1 20580U 90037B 23163.13685888 .00004556 00000-0 23948-3 0 9995 2 20580 28.4700 301.6105 0002328 333.6779 198.3167 15.13241231620968 ISS (ZARYA) 1 25544U 98067A 23163.31467006 .00012077 00000-0 21394-3 0 9991 2 25544 51.6424 352.6837 0005364 74.0229 94.7181 15.50694286401034 CXO 1 25867U 99040B 23165.31217751 .00000236 00000-0 00000+0 0 9994 2 25867 37.6279 197.2753 9055592 262.0049 359.9279 0.37809856 24327 ...Continue Reading

[TLELIST] Current TLEs

June 12th 2023 PDT

HST 1 20580U 90037B 23163.13685888 .00004556 00000-0 23948-3 0 9995 2 20580 28.4700 301.6105 0002328 333.6779 198.3167 15.13241231620968 ISS (ZARYA) 1 25544U 98067A 23163.31467006 .00012077 00000-0 21394-3 0 9991 2 25544 51.6424 352.6837 0005364 74.0229 94.7181 15.50694286401034 CXO 1 25867U 99040B 23165.31217751 .00000236 00000-0 00000+0 0 9994 2 25867 37.6279 197.2753 9055592 262.0049 359.9279 0.37809856 24327 ...Continue Reading

[TLELIST] Current TLEs

June 12th 2023 PDT

HST 1 20580U 90037B 23163.13685888 .00004556 00000-0 23948-3 0 9995 2 20580 28.4700 301.6105 0002328 333.6779 198.3167 15.13241231620968 ISS (ZARYA) 1 25544U 98067A 23163.31467006 .00012077 00000-0 21394-3 0 9991 2 25544 51.6424 352.6837 0005364 74.0229 94.7181 15.50694286401034 CXO 1 25867U 99040B 23165.31217751 .00000236 00000-0 00000+0 0 9994 2 25867 37.6279 197.2753 9055592 262.0049 359.9279 0.37809856 24327 ...Continue Reading

[TLELIST] Current TLEs

June 11th 2023 PDT

HST 1 20580U 90037B 23161.81323396 .00004453 00000-0 23389-3 0 9996 2 20580 28.4702 310.4170 0002234 318.2419 188.7711 15.13230031620498 ISS (ZARYA) 1 25544U 98067A 23162.39423484 .00012962 00000-0 22919-3 0 9997 2 25544 51.6427 357.2502 0005327 69.9067 357.1481 15.50672992400891 CXO 1 25867U 99040B 23165.31165328 .00000236 00000-0 00000+0 0 9996 2 25867 37.6303 197.2862 9055594 261.9940 359.8569 0.37811602 24329 ...Continue Reading

[TLELIST] Current TLEs

June 10th 2023 PDT

HST 1 20580U 90037B 23160.88680722 .00004405 00000-0 23131-3 0 9993 2 20580 28.4701 316.5812 0002181 307.5876 182.5735 15.13222194620350 ISS (ZARYA) 1 25544U 98067A 23161.05314815 .00013937 00000-0 24614-3 0 9993 2 25544 51.6422 3.8974 0005491 67.8121 67.8666 15.50633390400689 CXO 1 25867U 99040B 23162.66981147 .00000366 00000-0 00000+0 0 9990 2 25867 37.6511 197.6548 9052174 261.6872 0.2226 0.37808725 24315 ...Continue Reading

[TLELIST] Current TLEs

June 9th 2023 PDT

HST 1 20580U 90037B 23159.62594859 .00004557 00000-0 23974-3 0 9991 2 20580 28.4705 324.9700 0002151 292.1444 155.7275 15.13211881620161 ISS (ZARYA) 1 25544U 98067A 23160.39424544 .00014660 00000-0 25863-3 0 9991 2 25544 51.6428 7.1636 0005453 65.5181 349.5815 15.50617471400583 CXO 1 25867U 99040B 23162.66981147 .00000366 00000-0 00000+0 0 9990 2 25867 37.6511 197.6548 9052174 261.6872 0.2226 0.37808725 24315 ...Continue Reading

[TLELIST] Current TLEs

June 9th 2023 PDT

HST 1 20580U 90037B 23159.62594859 .00004557 00000-0 23974-3 0 9991 2 20580 28.4705 324.9700 0002151 292.1444 155.7275 15.13211881620161 ISS (ZARYA) 1 25544U 98067A 23160.39424544 .00014660 00000-0 25863-3 0 9991 2 25544 51.6428 7.1636 0005453 65.5181 349.5815 15.50617471400583 CXO 1 25867U 99040B 23162.66981147 .00000366 00000-0 00000+0 0 9990 2 25867 37.6511 197.6548 9052174 261.6872 0.2226 0.37808725 24315 ...Continue Reading

[TLELIST] Current TLEs

June 8th 2023 PDT

HST 1 20580U 90037B 23159.17831493 .00004520 00000-0 23771-3 0 9994 2 20580 28.4707 327.9479 0002164 286.3656 238.1488 15.13208101620368 ISS (ZARYA) 1 25544U 98067A 23159.12120844 .00013971 00000-0 24718-3 0 9998 2 25544 51.6420 13.4809 0005502 61.7246 82.3957 15.50580383400380 CXO 1 25867U 99040B 23160.03136724 .00000539 00000-0 00000+0 0 9994 2 25867 37.6644 197.9416 9049011 261.4577 0.9826 0.37809021 24307 ...Continue Reading

[TLELIST] Current TLEs

June 7th 2023 PDT

HST 1 20580U 90037B 23157.85354507 .00004337 00000-0 22778-3 0 9995 2 20580 28.4708 336.7611 0002116 269.7013 223.7413 15.13196782619899 ISS (ZARYA) 1 25544U 98067A 23158.35072134 .00015583 00000-0 27496-3 0 9997 2 25544 51.6424 17.2979 0005367 62.0307 98.3520 15.50557904400268 CXO 1 25867U 99040B 23160.03136724 .00000539 00000-0 00000+0 0 9994 2 25867 37.6644 197.9416 9049011 261.4577 0.9826 0.37809021 24307 ...Continue Reading

[TLELIST] Current TLEs

June 6th 2023 PDT

HST 1 20580U 90037B 23156.86360906 .00004066 00000-0 21296-3 0 9998 2 20580 28.4709 343.3467 0002110 257.2482 232.8002 15.13188046619742 ISS (ZARYA) 1 25544U 98067A 23157.43060615 .00013796 00000-0 24468-3 0 9996 2 25544 51.6428 21.8576 0005563 56.4723 4.4645 15.50523323400122 CXO 1 25867U 99040B 23157.38137168 .00000610 00000-0 00000+0 0 9991 2 25867 37.6776 198.2438 9048520 261.2194 0.1201 0.37813818 24294 ...Continue Reading
  • This mailing list is a public mailing list - anyone may join or leave, at any time.
  • This mailing list is announce-only.

International Space Station (ISS) / Hubble Space Telescope (HST) / Chandra X-Ray Observatory Orbital Data via EMAIL

Privacy Policy:

Private list